Regional Weather Roundup
Issued by NWS

Home | Current Version | Previous Version | Text Only | Print | Product List | Glossary On
Versions: 1 2 3 4 5 6 7 8 9 10 11 12 13 14 15 16 17 18 19 20 21 22 23 24 25 26 27 28 29 30 31 32 33 34 35 36 37 38 39 40 41 42 43 44 45 46 47 48 49 50
000
ASPQ40 PGUM 301512
RWRPQ
WEATHER ROUNDUP FOR THE MARIANAS AND MICRONESIA
NATIONAL WEATHER SERVICE TIYAN GU
100 AM CHST SUN AUG 31 2014

GUZ001>004-301600-
MARIANA ISLANDS-

CITY           SKY/WX    TMP DP  RH WIND       PRES   REMARKS
GUAM AIRPORT   CLEAR     81  75  83 E3        29.77F
ANDERSEN AFB   PTCLDY    77  75  94 E6        29.78
ROTA AIRPORT   NOT AVBL
TINIAN AP      NOT AVBL
SAIPAN AP      PTCLDY    81  77  89 E7        29.76F

$$

PMZ161-301600-
REPUBLIC OF PALAU-

CITY           SKY/WX    TMP DP  RH WIND       PRES   REMARKS
KOROR AP       MOCLDY    81  77  89 CALM      29.76F
KOROR WSO      CLOUDY    79  77  94 NE3       29.76F

$$

PMZ171>174-301600-
FEDERATED STATES OF MICRONESIA-

CITY           SKY/WX    TMP DP  RH WIND       PRES   REMARKS
YAP AIRPORT    MOCLDY    81  77  89 VRB5      29.74S
CHUUK AP       MOCLDY    77  75  94 VRB5      29.75F
POHNPEI AP     NOT AVBL
POHNPEI WSO    PTCLDY    75  75 100 SE2       29.79F
KOSRAE AP      NOT AVBL

$$

PMZ181-301600-
REPUBLIC OF THE MARSHALL ISLANDS-

CITY           SKY/WX    TMP DP  RH WIND       PRES   REMARKS
KWAJALEIN AP   CLEAR     82  72  69 E3        29.77S
MAJURO AP      NOT AVBL
MAJURO WSO     MOCLDY    81  75  83 CALM      29.75F

$$



USA.gov is the U.S. government's official web portal to all federal, state and local government web resources and services.